Location: Rodson Ranch
(38.7188°N, 119.3202°W)
Time: 16:38:52
(UTC+00:00)

Cosmos 1697 Rocket - Pass Details

Date: 29 October 2020
Orbit: 831 x 845 km, 71.0° (Epoch: 23 November)

Event Time Altitude Azimuth Distance (km) Brightness Sun altitude
Exits shadow 12:32:05 29° 324° (NW) 1,512 3.7 -21.9°
Maximum altitude 12:35:00 65° 251° (WSW) 924 2.6 -21.3°
Drops below altitude 10° 12:40:34 10° 171° (S) 2,455 5.2 -20.2°
Sets 12:43:01 0° 168° (SSE) 3,387 6.0 -19.7°
